DL7GAI-7 Weather Reports


time (UTC)temp
C
wind
direction
speed
KPH
gust
KPH
rain 1hr
cm
rain 24hr
cm
rain mn
cm
humidity
%
barometer
mb
20260906194638 22 45 9.7 17.7 0.00 0.00 0.00 52 1022.3
20260906193321 22 45 9.7 14.5 0.00 0.00 0.00 52 1021.8
20260906192006 22 45 9.7 14.5 0.00 0.00 0.00 52 1021.8
20260906190741 22 45 9.7 14.5 0.00 0.00 0.00 52 1021.8
20260906185421 21 45 6.4 9.7 0.00 0.00 0.00 61 1021.9
20260906184059 21 45 6.4 9.7 0.00 0.00 0.00 61 1021.9
20260906182658 23 45 4.8 6.4 0.00 0.00 0.00 55 1021.6
20260906181401 23 45 4.8 6.4 0.00 0.00 0.00 55 1021.6
20260906180039 25 90 4.8 11.3 0.00 0.00 0.00 44 1021.3
20260906174612 25 90 4.8 11.3 0.00 0.00 0.00 44 1021.3
20260906173226 25 90 6.4 11.3 0.00 0.00 0.00 42 1021.2
20260906172008 25 90 6.4 11.3 0.00 0.00 0.00 42 1021.2
20260906170608 25 90 6.4 11.3 0.00 0.00 0.00 42 1021.2
20260906165236 26 45 8.0 16.1 0.00 0.00 0.00 41 1021.3
20260906163801 26 45 8.0 16.1 0.00 0.00 0.00 41 1021.3
20260906162456 26 45 6.4 16.1 0.00 0.00 0.00 41 1021.4
20260906161136 26 45 6.4 16.1 0.00 0.00 0.00 41 1021.4
20260906155741 26 90 9.7 19.3 0.00 0.00 0.00 41 1021.7
20260906154421 26 90 9.7 19.3 0.00 0.00 0.00 41 1021.7
20260906153034 26 90 11.3 17.7 0.00 0.00 0.00 40 1021.8
20260906151741 26 90 11.3 17.7 0.00 0.00 0.00 40 1021.8
20260906150336 25 90 6.4 17.7 0.00 0.00 0.00 41 1022.3
20260906145001 25 90 6.4 17.7 0.00 0.00 0.00 41 1022.3
20260906143641 25 90 6.4 17.7 0.00 0.00 0.00 41 1022.3
20260906142328 25 45 9.7 17.7 0.00 0.00 0.00 41 1022.5
20260906141001 25 45 9.7 17.7 0.00 0.00 0.00 41 1022.5
20260906135651 25 90 9.7 24.1 0.00 0.00 0.00 43 1022.8
20260906134351 25 90 9.7 24.1 0.00 0.00 0.00 43 1022.8
20260906133006 26 45 9.7 24.1 0.00 0.00 0.00 41 1022.8
20260906131656 26 45 9.7 24.1 0.00 0.00 0.00 41 1022.8
20260906130306 24 45 9.7 22.5 0.00 0.00 0.00 43 1023.5
20260906124855 24 45 9.7 22.5 0.00 0.00 0.00 43 1023.5
20260906123606 24 45 9.7 22.5 0.00 0.00 0.00 43 1023.5
20260906122328 23 45 9.7 19.3 0.00 0.00 0.00 43 1023.7
20260906121106 23 45 9.7 19.3 0.00 0.00 0.00 43 1023.7
20260906115744 22 90 9.7 22.5 0.00 0.00 0.00 45 1024.2
20260906114426 22 90 9.7 22.5 0.00 0.00 0.00 45 1024.2
20260906113111 22 45 11.3 22.5 0.00 0.00 0.00 47 1024.5
20260906111711 22 45 11.3 22.5 0.00 0.00 0.00 47 1024.5
20260906110416 22 90 8.0 16.1 0.00 0.00 0.00 51 1024.9
20260906104941 22 90 8.0 16.1 0.00 0.00 0.00 51 1024.9
20260906103611 22 90 8.0 16.1 0.00 0.00 0.00 51 1024.9
20260906102256 20 225 6.4 14.5 0.00 0.00 0.00 60 1025.4
20260906101020 20 225 6.4 14.5 0.00 0.00 0.00 60 1025.4
20260906095601 19 225 4.8 9.7 0.00 0.00 0.00 60 1025.7
20260906094208 19 225 4.8 9.7 0.00 0.00 0.00 60 1025.7
20260906092731 18 270 3.2 8.0 0.00 0.00 0.00 62 1025.9
20260906091311 18 270 3.2 8.0 0.00 0.00 0.00 62 1025.9
20260906085928 17 270 6.4 11.3 0.00 0.00 0.00 67 1026.3
20260906084504 17 270 6.4 11.3 0.00 0.00 0.00 67 1026.3
20260906083124 16 270 9.7 11.3 0.00 0.00 0.00 74 1026.5
20260906081751 16 270 9.7 11.3 0.00 0.00 0.00 74 1026.5
20260906080506 15 270 6.4 9.7 0.00 0.00 0.00 77 1026.4
20260906075111 15 270 6.4 9.7 0.00 0.00 0.00 77 1026.4
20260906073731 15 270 6.4 9.7 0.00 0.00 0.00 77 1026.4
20260906072341 15 90 3.2 4.8 0.00 0.00 0.00 84 1026.2
20260906071124 15 90 3.2 4.8 0.00 0.00 0.00 84 1026.2
20260906065624 12 0 4.8 8.0 0.00 0.00 0.00 89 1026.9
20260906064321 12 0 4.8 8.0 0.00 0.00 0.00 89 1026.9
20260906062951 11 0 3.2 6.4 0.00 0.15 0.00 96 1027.1
20260906061736 11 0 3.2 6.4 0.00 0.15 0.00 96 1027.1
20260906060417 11 45 1.6 4.8 0.00 0.15 0.00 97 1026.7
20260906055141 11 45 1.6 4.8 0.00 0.15 0.00 97 1026.7
20260906053841 11 45 1.6 4.8 0.00 0.15 0.00 97 1026.7
20260906052521 11 0 3.2 4.8 0.00 0.15 0.00 98 1026.7
20260906051206 11 0 3.2 4.8 0.00 0.15 0.00 98 1026.7
20260906045826 12 0 4.8 6.4 0.00 0.15 0.00 98 1026.7
20260906044446 12 0 4.8 6.4 0.00 0.15 0.00 98 1026.7
20260906043124 12 45 1.6 3.2 0.00 0.15 0.00 96 1026.6
20260906041706 12 45 1.6 3.2 0.00 0.15 0.00 96 1026.6
20260906040428 13 315 3.2 4.8 0.00 0.15 0.00 99 1026.3
20260906035033 13 315 3.2 4.8 0.00 0.15 0.00 99 1026.3
20260906033656 13 315 3.2 4.8 0.00 0.15 0.00 99 1026.3
20260906032326 13 45 3.2 3.2 0.00 0.15 0.00 99 1026.2
20260906031056 13 45 3.2 3.2 0.00 0.15 0.00 99 1026.2
20260906025641 13 0 3.2 6.4 0.00 0.15 0.00 99 1026.1
20260906024241 13 0 3.2 6.4 0.00 0.15 0.00 99 1026.1
20260906022844 13 45 3.2 4.8 0.00 0.15 0.00 98 1026.0
20260906021441 13 45 3.2 4.8 0.00 0.15 0.00 98 1026.0
20260906020125 13 0 3.2 9.7 0.00 0.15 0.00 97 1026.2
20260906014731 13 0 3.2 9.7 0.00 0.15 0.00 97 1026.2
20260906013256 13 0 4.8 6.4 0.00 0.15 0.00 97 1026.1
20260906011941 13 0 4.8 6.4 0.00 0.15 0.00 97 1026.1
20260906010701 13 0 4.8 6.4 0.00 0.15 0.00 97 1026.1
20260906005404 14 0 3.2 8.0 0.00 0.15 0.00 97 1026.2
20260906004116 14 0 3.2 8.0 0.00 0.15 0.00 97 1026.2
20260906002801 14 315 3.2 8.0 0.00 0.15 0.15 96 1026.2
20260906001406 14 315 3.2 8.0 0.00 0.15 0.15 96 1026.2
20260906000004 15 90 3.2 8.0 0.00 0.15 0.15 97 1026.3
20260905234631 15 90 3.2 8.0 0.00 0.15 0.15 97 1026.3
20260905233251 15 0 3.2 6.4 0.00 0.15 0.15 95 1026.0
20260905231936 15 0 3.2 6.4 0.00 0.15 0.15 95 1026.0
20260905230642 15 0 3.2 6.4 0.00 0.15 0.15 95 1026.0
20260905225311 15 90 3.2 9.7 0.00 0.15 0.15 95 1026.0
20260905223856 15 90 3.2 9.7 0.00 0.15 0.15 95 1026.0
20260905222631 15 0 4.8 9.7 0.00 0.15 0.15 95 1025.9
20260905221241 15 0 4.8 9.7 0.00 0.15 0.15 95 1025.9
20260905220021 15 315 8.0 9.7 0.00 0.15 0.15 94 1025.6
20260905214656 15 315 8.0 9.7 0.00 0.15 0.15 94 1025.6
20260905213350 15 45 3.2 6.4 0.00 0.15 0.15 94 1025.6
20260905211951 15 45 3.2 6.4 0.00 0.15 0.15 94 1025.6
20260905210631 15 45 3.2 6.4 0.00 0.15 0.15 94 1025.6
20260905205329 16 0 1.6 6.4 0.00 0.15 0.15 91 1025.2
20260905203926 16 0 1.6 6.4 0.00 0.15 0.15 91 1025.2
20260905202510 16 45 3.2 6.4 0.00 0.15 0.15 90 1025.0
20260905201216 16 45 3.2 6.4 0.00 0.15 0.15 90 1025.0
20260905195844 16 45 3.2 9.7 0.00 0.15 0.15 88 1024.7